Time,TemperatureF,DewpointF,PressureIn,WindDirection,WindDirectionDegrees,WindSpeedMPH,WindSpeedGustMPH,Humidity,HourlyPrecipIn,Conditions,Clouds,dailyrainin,SoftwareType,DateUTC
2013-01-07 00:04:00,28.2,13.7,30.01,SSW,202,0.0,0.0,54,0.00,,---,0.00,VWS V13.01,2013-01-07 07:04:00,
2013-01-07 00:09:00,28.0,13.5,30.01,SSE,158,0.0,0.0,54,0.00,,---,0.00,VWS V13.01,2013-01-07 07:09:00,
2013-01-07 00:14:00,27.6,13.1,30.01,SSE,158,0.0,0.0,54,0.00,,---,0.00,VWS V13.01,2013-01-07 07:14:00,
2013-01-07 00:20:00,27.6,13.1,30.01,SSE,158,0.0,0.0,54,0.00,,---,0.00,VWS V13.01,2013-01-07 07:20:00,
2013-01-07 00:26:00,27.5,13.1,30.01,SSE,158,0.0,0.0,54,0.00,,---,0.00,VWS V13.01,2013-01-07 07:26:00,
2013-01-07 00:31:00,27.1,13.1,30.01,SSE,158,0.0,0.0,55,0.00,,---,0.00,VWS V13.01,2013-01-07 07:31:00,
2013-01-07 00:36:00,27.1,13.1,30.01,SSE,158,0.0,0.0,55,0.00,,---,0.00,VWS V13.01,2013-01-07 07:36:00,
2013-01-07 00:41:00,26.9,12.9,30.01,SSE,158,0.0,0.0,55,0.00,,---,0.00,VWS V13.01,2013-01-07 07:41:00,
2013-01-07 00:46:00,26.7,13.1,30.01,SSE,158,0.0,0.0,56,0.00,,---,0.00,VWS V13.01,2013-01-07 07:46:00,
2013-01-07 00:51:00,26.6,13.0,30.01,SSE,158,0.0,0.0,56,0.00,,---,0.00,VWS V13.01,2013-01-07 07:51:00,
2013-01-07 00:56:00,26.4,12.8,30.01,SSE,158,0.0,0.0,56,0.00,,---,0.00,VWS V13.01,2013-01-07 07:56:00,
2013-01-07 01:01:00,26.2,13.1,30.01,SSE,158,0.0,0.0,57,0.00,,---,0.00,VWS V13.01,2013-01-07 08:01:00,
2013-01-07 01:07:00,25.8,12.7,30.01,SSE,158,0.0,0.0,57,0.00,,---,0.00,VWS V13.01,2013-01-07 08:07:00,
2013-01-07 01:13:00,25.7,12.6,30.00,South,180,0.0,0.0,57,0.00,,---,0.00,VWS V13.01,2013-01-07 08:13:00,
2013-01-07 01:18:00,25.8,12.7,30.00,South,180,0.0,0.0,57,0.00,,---,0.00,VWS V13.01,2013-01-07 08:18:00,
2013-01-07 01:23:00,25.8,12.7,30.00,South,180,0.0,0.0,57,0.00,,---,0.00,VWS V13.01,2013-01-07 08:23:00,
2013-01-07 01:28:00,25.8,12.7,30.00,South,180,0.0,0.0,57,0.00,,---,0.00,VWS V13.01,2013-01-07 08:28:00,
2013-01-07 01:33:00,25.8,12.7,30.00,South,180,0.0,0.0,57,0.00,,---,0.00,VWS V13.01,2013-01-07 08:33:00,
2013-01-07 01:38:00,25.7,13.0,30.00,South,180,0.0,0.0,58,0.00,,---,0.00,VWS V13.01,2013-01-07 08:38:00,
2013-01-07 01:43:00,25.7,12.6,30.00,South,180,0.0,0.0,57,0.00,,---,0.00,VWS V13.01,2013-01-07 08:43:00,
2013-01-07 01:49:00,25.7,12.6,30.01,South,180,0.0,0.0,57,0.00,,---,0.00,VWS V13.01,2013-01-07 08:49:00,
2013-01-07 01:54:00,25.7,12.6,30.01,South,180,0.0,0.0,57,0.00,,---,0.00,VWS V13.01,2013-01-07 08:54:00,
2013-01-07 02:00:00,25.7,12.6,30.01,South,180,0.0,0.0,57,0.00,,---,0.00,VWS V13.01,2013-01-07 09:00:00,
2013-01-07 02:05:00,25.7,13.0,30.01,South,180,0.0,0.0,58,0.00,,---,0.00,VWS V13.01,2013-01-07 09:05:00,
2013-01-07 02:10:00,25.7,13.0,30.01,South,180,3.3,3.3,58,0.00,,---,0.00,VWS V13.01,2013-01-07 09:10:00,
2013-01-07 02:16:00,25.7,13.4,30.01,SSW,202,4.0,4.0,59,0.00,,---,0.00,VWS V13.01,2013-01-07 09:16:00,
2013-01-07 02:21:00,25.7,13.4,30.01,SSW,202,0.0,0.0,59,0.00,,---,0.00,VWS V13.01,2013-01-07 09:21:00,
2013-01-07 02:26:00,25.7,13.4,30.01,SSW,202,0.0,0.0,59,0.00,,---,0.00,VWS V13.01,2013-01-07 09:26:00,
2013-01-07 02:31:00,25.7,13.4,30.01,South,180,0.0,0.0,59,0.00,,---,0.00,VWS V13.01,2013-01-07 09:31:00,
2013-01-07 02:36:00,25.5,13.2,30.01,South,180,0.0,0.0,59,0.00,,---,0.00,VWS V13.01,2013-01-07 09:36:00,
2013-01-07 02:41:00,25.5,13.2,30.00,South,180,0.0,0.0,59,0.00,,---,0.00,VWS V13.01,2013-01-07 09:41:00,
2013-01-07 02:46:00,25.3,13.0,30.01,South,180,0.0,0.0,59,0.00,,---,0.00,VWS V13.01,2013-01-07 09:46:00,
2013-01-07 02:51:00,25.1,12.8,30.01,East,90,0.0,0.0,59,0.00,,---,0.00,VWS V13.01,2013-01-07 09:51:00,
2013-01-07 02:56:00,24.9,12.6,30.01,East,90,0.0,0.0,59,0.00,,---,0.00,VWS V13.01,2013-01-07 09:56:00,
2013-01-07 03:01:00,24.6,12.7,30.01,East,90,0.0,0.0,60,0.00,,---,0.00,VWS V13.01,2013-01-07 10:01:00,
2013-01-07 03:06:00,24.4,12.1,30.01,East,90,0.0,0.0,59,0.00,,---,0.00,VWS V13.01,2013-01-07 10:06:00,
2013-01-07 03:12:00,24.4,12.5,30.01,ESE,112,0.0,0.0,60,0.00,,---,0.00,VWS V13.01,2013-01-07 10:12:00,
2013-01-07 03:17:00,24.4,12.5,30.01,ESE,112,0.0,0.0,60,0.00,,---,0.00,VWS V13.01,2013-01-07 10:17:00,
2013-01-07 03:22:00,24.4,12.9,30.01,ESE,112,0.0,0.0,61,0.00,,---,0.00,VWS V13.01,2013-01-07 10:22:00,
2013-01-07 03:27:00,24.6,13.4,30.00,ESE,112,0.0,0.0,62,0.00,,---,0.00,VWS V13.01,2013-01-07 10:27:00,
2013-01-07 03:32:00,24.6,13.4,30.00,ESE,112,0.0,0.0,62,0.00,,---,0.00,VWS V13.01,2013-01-07 10:32:00,
2013-01-07 03:37:00,24.9,13.7,30.00,ESE,112,0.0,0.0,62,0.00,,---,0.00,VWS V13.01,2013-01-07 10:37:00,
2013-01-07 03:42:00,25.1,13.9,30.00,ESE,112,0.0,0.0,62,0.00,,---,0.00,VWS V13.01,2013-01-07 10:42:00,
2013-01-07 03:47:00,24.9,13.4,30.00,ESE,112,0.0,0.0,61,0.00,,---,0.00,VWS V13.01,2013-01-07 10:47:00,
2013-01-07 03:52:00,24.9,13.4,30.00,ESE,112,0.0,0.0,61,0.00,,---,0.00,VWS V13.01,2013-01-07 10:52:00,
2013-01-07 03:57:00,24.9,13.7,30.00,ESE,112,0.0,0.0,62,0.00,,---,0.00,VWS V13.01,2013-01-07 10:57:00,
2013-01-07 04:03:00,24.9,13.7,30.00,ESE,112,0.0,0.0,62,0.00,,---,0.00,VWS V13.01,2013-01-07 11:03:00,
2013-01-07 04:08:00,24.9,13.7,30.00,South,180,4.9,4.9,62,0.00,,---,0.00,VWS V13.01,2013-01-07 11:08:00,
2013-01-07 04:13:00,25.1,14.3,30.00,SSW,202,4.2,4.2,63,0.00,,---,0.00,VWS V13.01,2013-01-07 11:13:00,
2013-01-07 04:19:00,25.5,14.7,30.00,SSW,202,0.0,0.0,63,0.00,,---,0.00,VWS V13.01,2013-01-07 11:19:00,
2013-01-07 04:24:00,25.8,15.0,30.00,SSW,202,0.0,0.0,63,0.00,,---,0.00,VWS V13.01,2013-01-07 11:24:00,
2013-01-07 04:29:00,25.8,15.0,30.00,SSW,202,0.0,0.0,63,0.00,,---,0.00,VWS V13.01,2013-01-07 11:29:00,
2013-01-07 04:34:00,25.8,15.0,30.00,SSW,202,0.0,0.0,63,0.00,,---,0.00,VWS V13.01,2013-01-07 11:34:00,
2013-01-07 04:39:00,25.8,15.0,30.00,SSW,202,0.0,0.0,63,0.00,,---,0.00,VWS V13.01,2013-01-07 11:39:00,
2013-01-07 04:44:00,25.8,15.0,30.00,SSW,202,0.0,0.0,63,0.00,,---,0.00,VWS V13.01,2013-01-07 11:44:00,
2013-01-07 04:49:00,25.8,15.0,30.00,SSW,202,0.0,0.0,63,0.00,,---,0.00,VWS V13.01,2013-01-07 11:49:00,
2013-01-07 04:54:00,25.8,15.0,30.00,SSW,202,0.0,0.0,63,0.00,,---,0.00,VWS V13.01,2013-01-07 11:54:00,
2013-01-07 04:59:00,25.8,15.0,30.00,SSE,158,0.0,0.0,63,0.00,,---,0.00,VWS V13.01,2013-01-07 11:59:00,
2013-01-07 05:04:00,25.8,15.0,30.00,SSE,158,0.0,0.0,63,0.00,,---,0.00,VWS V13.01,2013-01-07 12:04:00,
2013-01-07 05:10:00,25.8,15.0,30.00,SSE,158,0.0,0.0,63,0.00,,---,0.00,VWS V13.01,2013-01-07 12:10:00,
2013-01-07 05:16:00,25.8,15.0,30.00,SSW,202,1.1,5.5,63,0.00,,---,0.00,VWS V13.01,2013-01-07 12:16:00,
2013-01-07 05:21:00,26.2,15.3,30.01,SW,225,2.6,2.6,63,0.00,,---,0.00,VWS V13.01,2013-01-07 12:21:00,
2013-01-07 05:26:00,26.2,15.3,30.01,SSW,202,0.0,0.0,63,0.00,,---,0.00,VWS V13.01,2013-01-07 12:26:00,
2013-01-07 05:31:00,26.4,15.5,30.00,SSE,158,0.0,0.0,63,0.00,,---,0.00,VWS V13.01,2013-01-07 12:31:00,
2013-01-07 05:36:00,26.4,15.5,30.00,SSW,202,0.0,0.0,63,0.00,,---,0.00,VWS V13.01,2013-01-07 12:36:00,
2013-01-07 05:41:00,26.4,15.5,30.01,West,270,0.0,0.0,63,0.00,,---,0.00,VWS V13.01,2013-01-07 12:41:00,
2013-01-07 05:46:00,26.4,15.5,30.00,West,270,0.0,0.0,63,0.00,,---,0.00,VWS V13.01,2013-01-07 12:46:00,
2013-01-07 05:52:00,26.4,15.5,30.02,SSW,202,0.0,0.0,63,0.00,,---,0.00,VWS V13.01,2013-01-07 12:52:00,
2013-01-07 05:57:00,26.4,15.5,30.02,SSW,202,0.0,0.0,63,0.00,,---,0.00,VWS V13.01,2013-01-07 12:57:00,
2013-01-07 06:02:00,26.4,15.5,30.02,SSW,202,0.0,0.0,63,0.00,,---,0.00,VWS V13.01,2013-01-07 13:02:00,
2013-01-07 06:07:00,26.4,15.5,30.02,SSW,202,0.0,0.0,63,0.00,,---,0.00,VWS V13.01,2013-01-07 13:07:00,
2013-01-07 06:12:00,26.4,15.5,30.02,SSW,202,0.0,0.0,63,0.00,,---,0.00,VWS V13.01,2013-01-07 13:12:00,
2013-01-07 06:17:00,26.4,15.5,30.02,SSW,202,1.5,1.5,63,0.00,,---,0.00,VWS V13.01,2013-01-07 13:17:00,
2013-01-07 06:22:00,26.4,15.2,30.02,SSW,202,0.0,3.1,62,0.00,,---,0.00,VWS V13.01,2013-01-07 13:22:00,
2013-01-07 06:27:00,26.2,15.0,30.02,SSW,202,0.0,0.0,62,0.00,,---,0.00,VWS V13.01,2013-01-07 13:27:00,
2013-01-07 06:32:00,26.2,15.3,30.02,SSW,202,0.0,0.0,63,0.00,,---,0.00,VWS V13.01,2013-01-07 13:32:00,
2013-01-07 06:37:00,26.2,15.0,30.02,SSW,202,0.0,0.0,62,0.00,,---,0.00,VWS V13.01,2013-01-07 13:37:00,
2013-01-07 06:42:00,26.2,15.0,30.02,SSW,202,0.0,0.0,62,0.00,,---,0.00,VWS V13.01,2013-01-07 13:42:00,
2013-01-07 06:47:00,26.2,15.0,30.02,SSW,202,0.0,0.0,62,0.00,,---,0.00,VWS V13.01,2013-01-07 13:47:00,
2013-01-07 06:52:00,26.0,14.8,30.02,South,180,0.0,0.0,62,0.00,,---,0.00,VWS V13.01,2013-01-07 13:52:00,
2013-01-07 06:57:00,26.0,14.8,30.01,SSW,202,0.0,0.0,62,0.00,,---,0.00,VWS V13.01,2013-01-07 13:57:00,
2013-01-07 07:02:00,26.2,15.3,30.01,SSW,202,0.0,0.0,63,0.00,,---,0.00,VWS V13.01,2013-01-07 14:02:00,
2013-01-07 07:07:00,26.2,15.3,30.01,ESE,112,0.0,0.0,63,0.00,,---,0.00,VWS V13.01,2013-01-07 14:07:00,
2013-01-07 07:12:00,26.4,15.5,30.01,ESE,112,0.0,0.0,63,0.00,,---,0.00,VWS V13.01,2013-01-07 14:12:00,
2013-01-07 07:17:00,26.4,15.2,30.00,ESE,112,0.0,0.0,62,0.00,,---,0.00,VWS V13.01,2013-01-07 14:17:00,
2013-01-07 07:23:00,26.4,15.5,30.00,South,180,0.0,0.0,63,0.00,,---,0.00,VWS V13.01,2013-01-07 14:23:00,
2013-01-07 07:29:00,26.6,15.4,30.01,SSW,202,0.0,0.0,62,0.00,,---,0.00,VWS V13.01,2013-01-07 14:29:00,
2013-01-07 07:34:00,26.7,15.4,30.01,SSW,202,0.0,0.0,62,0.00,,---,0.00,VWS V13.01,2013-01-07 14:34:00,
2013-01-07 07:39:00,26.9,15.6,30.01,SSW,202,0.0,0.0,62,0.00,,---,0.00,VWS V13.01,2013-01-07 14:39:00,
2013-01-07 07:44:00,26.9,15.6,30.01,SW,225,0.0,0.0,62,0.00,,---,0.00,VWS V13.01,2013-01-07 14:44:00,
2013-01-07 07:49:00,26.9,15.6,30.01,SSW,202,0.0,0.0,62,0.00,,---,0.00,VWS V13.01,2013-01-07 14:49:00,
2013-01-07 07:54:00,27.1,15.8,30.02,SSW,202,0.0,0.0,62,0.00,,---,0.00,VWS V13.01,2013-01-07 14:54:00,
2013-01-07 07:59:00,27.3,16.0,30.02,SSW,202,0.0,0.0,62,0.00,,---,0.00,VWS V13.01,2013-01-07 14:59:00,
2013-01-07 08:04:00,27.3,15.6,30.02,SSW,202,0.0,0.0,61,0.00,,---,0.00,VWS V13.01,2013-01-07 15:04:00,
2013-01-07 08:09:00,27.5,16.2,30.02,SSW,202,0.0,0.0,62,0.00,,---,0.00,VWS V13.01,2013-01-07 15:09:00,
2013-01-07 08:14:00,27.5,15.8,30.02,SW,225,0.0,0.0,61,0.00,,---,0.00,VWS V13.01,2013-01-07 15:14:00,
2013-01-07 08:19:00,27.6,15.9,30.02,SW,225,0.0,0.0,61,0.00,,---,0.00,VWS V13.01,2013-01-07 15:19:00,
2013-01-07 08:24:00,27.6,15.9,30.02,SSW,202,1.5,1.5,61,0.00,,---,0.00,VWS V13.01,2013-01-07 15:24:00,
2013-01-07 08:30:00,27.6,15.9,30.02,SSW,202,0.0,0.0,61,0.00,,---,0.00,VWS V13.01,2013-01-07 15:30:00,
2013-01-07 08:35:00,28.0,16.3,30.02,SSW,202,0.0,0.0,61,0.00,,---,0.00,VWS V13.01,2013-01-07 15:35:00,
2013-01-07 08:40:00,28.0,16.3,30.02,SSW,202,0.0,0.0,61,0.00,,---,0.00,VWS V13.01,2013-01-07 15:40:00,
2013-01-07 08:45:00,28.2,16.5,30.02,SSW,202,0.0,0.0,61,0.00,,---,0.00,VWS V13.01,2013-01-07 15:45:00,
2013-01-07 08:50:00,28.2,16.5,30.02,SSW,202,0.0,0.0,61,0.00,,---,0.00,VWS V13.01,2013-01-07 15:50:00,
2013-01-07 08:55:00,28.2,16.5,30.02,SSW,202,0.0,0.0,61,0.00,,---,0.00,VWS V13.01,2013-01-07 15:55:00,
2013-01-07 09:00:00,28.2,16.5,30.02,South,180,6.0,6.0,61,0.00,,---,0.00,VWS V13.01,2013-01-07 16:00:00,
2013-01-07 09:05:00,28.5,16.8,30.02,SSW,202,4.6,4.6,61,0.00,,---,0.00,VWS V13.01,2013-01-07 16:05:00,
2013-01-07 09:10:00,28.7,17.0,30.02,SSW,202,2.6,2.6,61,0.00,,---,0.00,VWS V13.01,2013-01-07 16:10:00,
2013-01-07 09:16:00,28.9,17.2,30.02,SSW,202,1.7,2.4,61,0.00,,---,0.00,VWS V13.01,2013-01-07 16:16:00,
2013-01-07 09:21:00,29.1,17.3,30.02,SW,225,4.0,4.0,61,0.00,,---,0.00,VWS V13.01,2013-01-07 16:21:00,
2013-01-07 09:26:00,29.3,17.5,30.02,SW,225,0.0,0.0,61,0.00,,---,0.00,VWS V13.01,2013-01-07 16:26:00,
2013-01-07 09:32:00,29.4,17.2,30.02,SSW,202,3.3,3.3,60,0.00,,---,0.00,VWS V13.01,2013-01-07 16:32:00,
2013-01-07 09:37:00,29.8,17.6,30.02,SSW,202,1.3,3.5,60,0.00,,---,0.00,VWS V13.01,2013-01-07 16:37:00,
2013-01-07 09:42:00,30.0,17.8,30.02,South,180,2.6,2.6,60,0.00,,---,0.00,VWS V13.01,2013-01-07 16:42:00,
2013-01-07 09:47:00,30.0,17.4,30.01,SSW,202,4.2,4.2,59,0.00,,---,0.00,VWS V13.01,2013-01-07 16:47:00,
2013-01-07 09:52:00,30.3,17.7,30.01,SW,225,0.0,2.0,59,0.00,,---,0.00,VWS V13.01,2013-01-07 16:52:00,
2013-01-07 09:57:00,30.3,17.7,30.01,SSW,202,0.0,0.0,59,0.00,,---,0.00,VWS V13.01,2013-01-07 16:57:00,
2013-01-07 10:02:00,30.5,17.9,30.01,SSW,202,0.0,0.0,59,0.00,,---,0.00,VWS V13.01,2013-01-07 17:02:00,
2013-01-07 10:07:00,30.7,18.1,30.02,SSW,202,0.0,0.0,59,0.00,,---,0.00,VWS V13.01,2013-01-07 17:07:00,
2013-01-07 10:12:00,30.9,17.9,30.01,SSW,202,0.0,0.0,58,0.00,,---,0.00,VWS V13.01,2013-01-07 17:12:00,
2013-01-07 10:17:00,31.2,18.2,30.01,SW,225,4.4,4.4,58,0.00,,---,0.00,VWS V13.01,2013-01-07 17:17:00,
2013-01-07 10:22:00,31.6,18.5,30.01,SSW,202,5.5,5.5,58,0.00,,---,0.00,VWS V13.01,2013-01-07 17:22:00,
2013-01-07 10:27:00,31.8,18.7,30.01,SSW,202,1.7,1.7,58,0.00,,---,0.00,VWS V13.01,2013-01-07 17:27:00,
2013-01-07 10:32:00,31.8,18.7,30.00,SSW,202,3.3,3.3,58,0.00,,---,0.00,VWS V13.01,2013-01-07 17:32:00,
2013-01-07 10:37:00,32.3,19.2,30.00,WSW,248,4.9,4.9,58,0.00,,---,0.00,VWS V13.01,2013-01-07 17:37:00,
2013-01-07 10:43:00,32.5,19.4,30.00,SSW,202,0.0,0.0,58,0.00,,---,0.00,VWS V13.01,2013-01-07 17:43:00,
2013-01-07 10:48:00,32.7,19.2,30.00,WSW,248,2.9,2.9,57,0.00,,---,0.00,VWS V13.01,2013-01-07 17:48:00,
2013-01-07 10:53:00,32.9,19.4,30.00,WSW,248,0.0,0.0,57,0.00,,---,0.00,VWS V13.01,2013-01-07 17:53:00,
2013-01-07 10:58:00,33.0,19.4,30.00,SSW,202,6.2,6.2,57,0.00,,---,0.00,VWS V13.01,2013-01-07 17:58:00,
2013-01-07 11:03:00,33.6,20.0,29.99,SW,225,3.1,3.1,57,0.00,,---,0.00,VWS V13.01,2013-01-07 18:03:00,
2013-01-07 11:08:00,33.6,19.6,29.99,SSW,202,5.1,5.1,56,0.00,,---,0.00,VWS V13.01,2013-01-07 18:08:00,
2013-01-07 11:13:00,33.9,19.9,29.99,SW,225,6.2,6.2,56,0.00,,---,0.00,VWS V13.01,2013-01-07 18:13:00,
2013-01-07 11:18:00,34.3,20.2,29.98,SSW,202,4.0,4.0,56,0.00,,---,0.00,VWS V13.01,2013-01-07 18:18:00,
2013-01-07 11:23:00,34.3,20.2,29.98,SW,225,4.0,4.0,56,0.00,,---,0.00,VWS V13.01,2013-01-07 18:23:00,
2013-01-07 11:28:00,34.5,20.4,29.98,SSW,202,1.3,3.3,56,0.00,,---,0.00,VWS V13.01,2013-01-07 18:28:00,
2013-01-07 11:33:00,34.8,20.7,29.97,SSW,202,2.2,2.6,56,0.00,,---,0.00,VWS V13.01,2013-01-07 18:33:00,
2013-01-07 11:38:00,35.0,20.9,29.97,SW,225,0.0,0.0,56,0.00,,---,0.00,VWS V13.01,2013-01-07 18:38:00,
2013-01-07 11:43:00,35.2,21.1,29.97,SSW,202,2.6,2.6,56,0.00,,---,0.00,VWS V13.01,2013-01-07 18:43:00,
2013-01-07 11:48:00,35.2,21.1,29.97,SW,225,0.0,4.0,56,0.00,,---,0.00,VWS V13.01,2013-01-07 18:48:00,
2013-01-07 11:53:00,35.4,21.3,29.97,WSW,248,3.5,3.5,56,0.00,,---,0.00,VWS V13.01,2013-01-07 18:53:00,
2013-01-07 11:58:00,35.7,21.1,29.96,SW,225,5.5,5.5,55,0.00,,---,0.00,VWS V13.01,2013-01-07 18:58:00,
2013-01-07 12:03:00,35.7,21.1,29.95,SSW,202,0.0,1.5,55,0.00,,---,0.00,VWS V13.01,2013-01-07 19:03:00,
2013-01-07 12:08:00,35.9,21.3,29.94,East,90,0.0,0.0,55,0.00,,---,0.00,VWS V13.01,2013-01-07 19:08:00,
2013-01-07 12:13:00,36.1,21.5,29.94,SW,225,0.0,0.0,55,0.00,,---,0.00,VWS V13.01,2013-01-07 19:13:00,
2013-01-07 12:18:00,36.3,21.7,29.94,SSW,202,3.1,3.1,55,0.00,,---,0.00,VWS V13.01,2013-01-07 19:18:00,
2013-01-07 12:24:00,36.3,21.7,29.94,SSW,202,6.4,6.4,55,0.00,,---,0.00,VWS V13.01,2013-01-07 19:24:00,
2013-01-07 12:29:00,36.5,21.9,29.93,SSW,202,5.5,5.5,55,0.00,,---,0.00,VWS V13.01,2013-01-07 19:29:00,
2013-01-07 12:34:00,36.5,21.5,29.93,WSW,248,3.5,3.5,54,0.00,,---,0.00,VWS V13.01,2013-01-07 19:34:00,
2013-01-07 12:39:00,36.5,21.5,29.92,WSW,248,3.1,3.1,54,0.00,,---,0.00,VWS V13.01,2013-01-07 19:39:00,
2013-01-07 12:44:00,36.5,21.5,29.92,SW,225,0.0,0.0,54,0.00,,---,0.00,VWS V13.01,2013-01-07 19:44:00,
2013-01-07 12:49:00,36.6,21.5,29.92,SSW,202,3.8,3.8,54,0.00,,---,0.00,VWS V13.01,2013-01-07 19:49:00,
2013-01-07 12:54:00,36.6,21.5,29.92,SSW,202,5.5,5.5,54,0.00,,---,0.00,VWS V13.01,2013-01-07 19:54:00,
2013-01-07 13:00:00,36.6,21.5,29.91,SSW,202,4.6,4.6,54,0.00,,---,0.00,VWS V13.01,2013-01-07 20:00:00,
2013-01-07 13:05:00,36.8,21.7,29.90,SSW,202,2.2,2.2,54,0.00,,---,0.00,VWS V13.01,2013-01-07 20:05:00,
2013-01-07 13:10:00,36.8,21.7,29.91,SSW,202,0.0,0.0,54,0.00,,---,0.00,VWS V13.01,2013-01-07 20:10:00,
2013-01-07 13:15:00,37.0,21.9,29.91,SSW,202,1.5,1.5,54,0.00,,---,0.00,VWS V13.01,2013-01-07 20:15:00,
2013-01-07 13:20:00,37.0,21.9,29.90,SSW,202,1.3,1.3,54,0.00,,---,0.00,VWS V13.01,2013-01-07 20:20:00,
2013-01-07 13:22:00,37.2,22.1,29.90,SSW,202,0.0,1.3,54,0.00,,---,0.00,VWS V13.01,2013-01-07 20:22:00,
2013-01-07 13:27:00,37.2,22.1,29.90,SW,225,3.3,3.3,54,0.00,,---,0.00,VWS V13.01,2013-01-07 20:27:00,
2013-01-07 13:32:00,37.2,21.7,29.90,SW,225,0.0,0.0,53,0.00,,---,0.00,VWS V13.01,2013-01-07 20:32:00,
2013-01-07 13:37:00,37.5,21.9,29.89,SW,225,2.6,3.1,53,0.00,,---,0.00,VWS V13.01,2013-01-07 20:37:00,
2013-01-07 13:42:00,37.5,21.9,29.89,WSW,248,0.0,0.0,53,0.00,,---,0.00,VWS V13.01,2013-01-07 20:42:00,
2013-01-07 13:47:00,37.9,21.9,29.89,WSW,248,0.0,0.0,52,0.00,,---,0.00,VWS V13.01,2013-01-07 20:47:00,
2013-01-07 13:52:00,37.9,22.3,29.89,SSW,202,2.0,2.0,53,0.00,,---,0.00,VWS V13.01,2013-01-07 20:52:00,
2013-01-07 13:57:00,38.1,22.5,29.89,SW,225,1.3,1.3,53,0.00,,---,0.00,VWS V13.01,2013-01-07 20:57:00,
2013-01-07 14:02:00,38.3,22.7,29.89,SW,225,2.9,2.9,53,0.00,,---,0.00,VWS V13.01,2013-01-07 21:02:00,
2013-01-07 14:07:00,38.6,23.0,29.88,SSW,202,2.0,2.0,53,0.00,,---,0.00,VWS V13.01,2013-01-07 21:07:00,
2013-01-07 14:12:00,38.8,22.7,29.88,SSW,202,0.0,0.0,52,0.00,,---,0.00,VWS V13.01,2013-01-07 21:12:00,
2013-01-07 14:18:00,39.0,23.3,29.87,SSW,202,1.5,1.5,53,0.00,,---,0.00,VWS V13.01,2013-01-07 21:18:00,
2013-01-07 14:23:00,39.3,23.6,29.87,SSW,202,1.5,1.5,53,0.00,,---,0.00,VWS V13.01,2013-01-07 21:23:00,
2013-01-07 14:28:00,39.3,23.2,29.87,SSW,202,0.0,0.0,52,0.00,,---,0.00,VWS V13.01,2013-01-07 21:28:00,
2013-01-07 14:33:00,39.7,23.5,29.87,SSW,202,2.0,3.1,52,0.00,,---,0.00,VWS V13.01,2013-01-07 21:33:00,
2013-01-07 14:38:00,39.7,23.5,29.87,SSW,202,0.0,0.0,52,0.00,,---,0.00,VWS V13.01,2013-01-07 21:38:00,
2013-01-07 14:43:00,39.9,23.3,29.87,SSW,202,0.0,0.0,51,0.00,,---,0.00,VWS V13.01,2013-01-07 21:43:00,
2013-01-07 14:48:00,39.9,23.3,29.87,SSW,202,0.0,0.0,51,0.00,,---,0.00,VWS V13.01,2013-01-07 21:48:00,
2013-01-07 14:53:00,40.1,23.4,29.87,SSW,202,0.0,0.0,51,0.00,,---,0.00,VWS V13.01,2013-01-07 21:53:00,
2013-01-07 14:58:00,40.1,23.0,29.87,SW,225,0.0,2.6,50,0.00,,---,0.00,VWS V13.01,2013-01-07 21:58:00,
2013-01-07 15:03:00,40.1,23.0,29.87,SW,225,0.0,0.0,50,0.00,,---,0.00,VWS V13.01,2013-01-07 22:03:00,
2013-01-07 15:08:00,40.2,22.6,29.87,SW,225,0.0,0.0,49,0.00,,---,0.00,VWS V13.01,2013-01-07 22:08:00,
2013-01-07 15:13:00,40.2,22.6,29.86,WSW,248,0.0,0.0,49,0.00,,---,0.00,VWS V13.01,2013-01-07 22:13:00,
2013-01-07 15:18:00,40.2,22.6,29.86,WSW,248,0.0,0.0,49,0.00,,---,0.00,VWS V13.01,2013-01-07 22:18:00,
2013-01-07 15:23:00,40.2,22.6,29.86,WSW,248,0.0,0.0,49,0.00,,---,0.00,VWS V13.01,2013-01-07 22:23:00,
2013-01-07 15:29:00,40.1,22.5,29.86,WSW,248,0.0,0.0,49,0.00,,---,0.00,VWS V13.01,2013-01-07 22:29:00,
2013-01-07 15:34:00,40.1,22.5,29.86,WSW,248,0.0,0.0,49,0.00,,---,0.00,VWS V13.01,2013-01-07 22:34:00,
2013-01-07 15:40:00,39.9,22.3,29.86,WSW,248,0.0,0.0,49,0.00,,---,0.00,VWS V13.01,2013-01-07 22:40:00,
2013-01-07 15:45:00,39.9,22.3,29.86,WSW,248,0.0,0.0,49,0.00,,---,0.00,VWS V13.01,2013-01-07 22:45:00,
2013-01-07 15:50:00,39.9,22.3,29.85,WSW,248,0.0,0.0,49,0.00,,---,0.00,VWS V13.01,2013-01-07 22:50:00,
2013-01-07 15:55:00,39.9,22.8,29.85,WSW,248,0.0,0.0,50,0.00,,---,0.00,VWS V13.01,2013-01-07 22:55:00,
2013-01-07 16:00:00,39.9,22.8,29.85,WSW,248,0.0,0.0,50,0.00,,---,0.00,VWS V13.01,2013-01-07 23:00:00,
2013-01-07 16:05:00,39.7,22.6,29.85,WSW,248,0.0,0.0,50,0.00,,---,0.00,VWS V13.01,2013-01-07 23:05:00,
2013-01-07 16:10:00,39.5,22.4,29.85,WSW,248,0.0,0.0,50,0.00,,---,0.00,VWS V13.01,2013-01-07 23:10:00,
2013-01-07 16:16:00,39.3,22.2,29.85,WSW,248,0.0,0.0,50,0.00,,---,0.00,VWS V13.01,2013-01-07 23:16:00,
2013-01-07 16:21:00,39.2,22.1,29.85,WSW,248,0.0,0.0,50,0.00,,---,0.00,VWS V13.01,2013-01-07 23:21:00,
2013-01-07 16:26:00,38.8,21.8,29.84,SW,225,0.0,0.0,50,0.00,,---,0.00,VWS V13.01,2013-01-07 23:26:00,
2013-01-07 16:32:00,38.4,21.4,29.84,SW,225,0.0,0.0,50,0.00,,---,0.00,VWS V13.01,2013-01-07 23:32:00,
2013-01-07 16:37:00,38.1,21.6,29.84,SW,225,0.0,0.0,51,0.00,,---,0.00,VWS V13.01,2013-01-07 23:37:00,
2013-01-07 16:42:00,37.9,21.4,29.84,SW,225,0.0,0.0,51,0.00,,---,0.00,VWS V13.01,2013-01-07 23:42:00,
2013-01-07 16:47:00,37.4,20.9,29.84,South,180,0.0,0.0,51,0.00,,---,0.00,VWS V13.01,2013-01-07 23:47:00,
2013-01-07 16:52:00,37.2,20.8,29.84,South,180,0.0,0.0,51,0.00,,---,0.00,VWS V13.01,2013-01-07 23:52:00,
2013-01-07 16:57:00,37.0,20.6,29.84,South,180,0.0,0.0,51,0.00,,---,0.00,VWS V13.01,2013-01-07 23:57:00,
2013-01-07 17:02:00,36.6,20.2,29.83,South,180,0.0,0.0,51,0.00,,---,0.00,VWS V13.01,2013-01-08 00:02:00,
2013-01-07 17:07:00,36.5,20.1,29.83,SSW,202,0.0,0.0,51,0.00,,---,0.00,VWS V13.01,2013-01-08 00:07:00,
2013-01-07 17:12:00,36.5,20.1,29.83,SSW,202,4.6,4.6,51,0.00,,---,0.00,VWS V13.01,2013-01-08 00:12:00,
2013-01-07 17:17:00,36.3,20.4,29.83,SSW,202,5.1,5.1,52,0.00,,---,0.00,VWS V13.01,2013-01-08 00:17:00,
2013-01-07 17:23:00,36.3,20.4,29.83,SSW,202,0.0,0.0,52,0.00,,---,0.00,VWS V13.01,2013-01-08 00:23:00,
2013-01-07 17:28:00,36.5,20.6,29.83,SSW,202,0.0,0.0,52,0.00,,---,0.00,VWS V13.01,2013-01-08 00:28:00,
2013-01-07 17:33:00,36.5,20.6,29.84,SSW,202,0.0,0.0,52,0.00,,---,0.00,VWS V13.01,2013-01-08 00:33:00,
2013-01-07 17:38:00,36.5,20.6,29.83,South,180,0.0,0.0,52,0.00,,---,0.00,VWS V13.01,2013-01-08 00:38:00,
2013-01-07 17:43:00,36.6,20.6,29.84,SSE,158,1.3,1.3,52,0.00,,---,0.00,VWS V13.01,2013-01-08 00:43:00,
2013-01-07 17:48:00,36.6,20.6,29.83,South,180,0.0,0.0,52,0.00,,---,0.00,VWS V13.01,2013-01-08 00:48:00,
2013-01-07 17:53:00,36.6,20.6,29.84,SE,135,0.0,0.0,52,0.00,,---,0.00,VWS V13.01,2013-01-08 00:53:00,
2013-01-07 17:58:00,36.6,20.6,29.84,South,180,0.0,0.0,52,0.00,,---,0.00,VWS V13.01,2013-01-08 00:58:00,
2013-01-07 18:03:00,36.6,20.6,29.84,South,180,0.0,0.0,52,0.00,,---,0.00,VWS V13.01,2013-01-08 01:03:00,
2013-01-07 18:09:00,36.5,20.6,29.84,South,180,0.0,0.0,52,0.00,,---,0.00,VWS V13.01,2013-01-08 01:09:00,
2013-01-07 18:15:00,36.5,20.6,29.83,SSW,202,3.8,3.8,52,0.00,,---,0.00,VWS V13.01,2013-01-08 01:15:00,
2013-01-07 18:20:00,36.3,20.4,29.84,SSW,202,0.0,0.0,52,0.00,,---,0.00,VWS V13.01,2013-01-08 01:20:00,
2013-01-07 18:25:00,36.3,20.4,29.83,SSW,202,2.0,2.0,52,0.00,,---,0.00,VWS V13.01,2013-01-08 01:25:00,
2013-01-07 18:30:00,36.3,20.4,29.83,WSW,248,1.7,6.0,52,0.00,,---,0.00,VWS V13.01,2013-01-08 01:30:00,
2013-01-07 18:35:00,36.3,20.8,29.83,SSW,202,3.1,3.1,53,0.00,,---,0.00,VWS V13.01,2013-01-08 01:35:00,
2013-01-07 18:41:00,36.3,20.8,29.84,SW,225,4.0,6.4,53,0.00,,---,0.00,VWS V13.01,2013-01-08 01:41:00,
2013-01-07 18:46:00,36.3,20.8,29.83,SSW,202,2.9,2.9,53,0.00,,---,0.00,VWS V13.01,2013-01-08 01:46:00,
2013-01-07 18:51:00,36.5,21.0,29.83,SSW,202,2.4,3.8,53,0.00,,---,0.00,VWS V13.01,2013-01-08 01:51:00,
2013-01-07 18:56:00,36.6,20.6,29.83,SW,225,3.5,6.2,52,0.00,,---,0.00,VWS V13.01,2013-01-08 01:56:00,
2013-01-07 19:01:00,36.6,20.6,29.84,SSW,202,5.5,5.5,52,0.00,,---,0.00,VWS V13.01,2013-01-08 02:01:00,
2013-01-07 19:06:00,36.6,20.6,29.83,SW,225,4.4,4.4,52,0.00,,---,0.00,VWS V13.01,2013-01-08 02:06:00,
2013-01-07 19:11:00,36.6,20.6,29.84,SSW,202,3.3,3.3,52,0.00,,---,0.00,VWS V13.01,2013-01-08 02:11:00,
2013-01-07 19:16:00,36.6,20.6,29.84,SW,225,4.0,4.0,52,0.00,,---,0.00,VWS V13.01,2013-01-08 02:16:00,
2013-01-07 19:22:00,36.6,20.6,29.82,SSW,202,5.8,5.8,52,0.00,,---,0.00,VWS V13.01,2013-01-08 02:22:00,
2013-01-07 19:27:00,36.6,20.6,29.82,SSW,202,2.9,2.9,52,0.00,,---,0.00,VWS V13.01,2013-01-08 02:27:00,
2013-01-07 19:32:00,36.6,20.6,29.82,SSW,202,0.0,2.2,52,0.00,,---,0.00,VWS V13.01,2013-01-08 02:32:00,
2013-01-07 19:37:00,36.6,20.6,29.82,SSW,202,0.0,0.0,52,0.00,,---,0.00,VWS V13.01,2013-01-08 02:37:00,
2013-01-07 19:42:00,36.6,20.6,29.81,SSW,202,0.0,0.0,52,0.00,,---,0.00,VWS V13.01,2013-01-08 02:42:00,
2013-01-07 19:47:00,36.6,20.6,29.80,SSW,202,0.0,0.0,52,0.00,,---,0.00,VWS V13.01,2013-01-08 02:47:00,
2013-01-07 19:52:00,36.6,20.6,29.80,SSW,202,0.0,0.0,52,0.00,,---,0.00,VWS V13.01,2013-01-08 02:52:00,
2013-01-07 19:57:00,36.5,20.6,29.80,SSW,202,0.0,0.0,52,0.00,,---,0.00,VWS V13.01,2013-01-08 02:57:00,
2013-01-07 20:02:00,36.5,21.0,29.80,SSW,202,4.0,4.0,53,0.00,,---,0.00,VWS V13.01,2013-01-08 03:02:00,
2013-01-07 20:08:00,36.5,21.0,29.79,SSW,202,0.0,0.0,53,0.00,,---,0.00,VWS V13.01,2013-01-08 03:08:00,
2013-01-07 20:13:00,36.3,20.8,29.79,SSW,202,0.0,0.0,53,0.00,,---,0.00,VWS V13.01,2013-01-08 03:13:00,
2013-01-07 20:18:00,36.3,20.8,29.79,SSW,202,4.9,4.9,53,0.00,,---,0.00,VWS V13.01,2013-01-08 03:18:00,
2013-01-07 20:23:00,36.3,21.3,29.79,SSW,202,5.3,5.3,54,0.00,,---,0.00,VWS V13.01,2013-01-08 03:23:00,
2013-01-07 20:28:00,36.1,21.1,29.79,SSW,202,0.0,1.7,54,0.00,,---,0.00,VWS V13.01,2013-01-08 03:28:00,
2013-01-07 20:33:00,36.1,21.1,29.79,SSW,202,0.0,0.0,54,0.00,,---,0.00,VWS V13.01,2013-01-08 03:33:00,
2013-01-07 20:38:00,36.1,21.5,29.79,SSW,202,0.0,0.0,55,0.00,,---,0.00,VWS V13.01,2013-01-08 03:38:00,
2013-01-07 20:43:00,35.9,21.3,29.79,SSW,202,3.5,3.5,55,0.00,,---,0.00,VWS V13.01,2013-01-08 03:43:00,
2013-01-07 20:48:00,35.7,21.1,29.79,SSW,202,2.0,2.0,55,0.00,,---,0.00,VWS V13.01,2013-01-08 03:48:00,
2013-01-07 20:53:00,35.7,21.1,29.79,SW,225,3.1,6.0,55,0.00,,---,0.00,VWS V13.01,2013-01-08 03:53:00,
2013-01-07 20:58:00,35.7,21.1,29.79,SSW,202,0.0,4.4,55,0.00,,---,0.00,VWS V13.01,2013-01-08 03:58:00,
2013-01-07 21:03:00,35.6,21.0,29.78,SSW,202,0.0,0.0,55,0.00,,---,0.00,VWS V13.01,2013-01-08 04:03:00,
2013-01-07 21:08:00,35.4,20.9,29.78,SSW,202,4.6,4.6,55,0.00,,---,0.00,VWS V13.01,2013-01-08 04:08:00,
2013-01-07 21:13:00,35.4,20.9,29.78,SSW,202,0.0,0.0,55,0.00,,---,0.00,VWS V13.01,2013-01-08 04:13:00,
2013-01-07 21:18:00,35.2,20.7,29.78,SSW,202,4.0,4.0,55,0.00,,---,0.00,VWS V13.01,2013-01-08 04:18:00,
2013-01-07 21:23:00,35.2,20.7,29.78,SSW,202,4.2,4.2,55,0.00,,---,0.00,VWS V13.01,2013-01-08 04:23:00,
2013-01-07 21:28:00,35.2,20.7,29.78,SSW,202,5.1,5.8,55,0.00,,---,0.00,VWS V13.01,2013-01-08 04:28:00,
2013-01-07 21:33:00,35.0,20.5,29.78,SSW,202,6.0,6.0,55,0.00,,---,0.00,VWS V13.01,2013-01-08 04:33:00,
2013-01-07 21:38:00,34.8,20.3,29.77,SSW,202,3.3,3.3,55,0.00,,---,0.00,VWS V13.01,2013-01-08 04:38:00,
2013-01-07 21:43:00,34.8,20.3,29.78,SSW,202,0.0,4.0,55,0.00,,---,0.00,VWS V13.01,2013-01-08 04:43:00,
2013-01-07 21:48:00,34.8,20.3,29.78,SSW,202,0.0,0.0,55,0.00,,---,0.00,VWS V13.01,2013-01-08 04:48:00,
2013-01-07 21:53:00,34.7,20.2,29.78,SSW,202,3.3,3.3,55,0.00,,---,0.00,VWS V13.01,2013-01-08 04:53:00,
2013-01-07 21:58:00,34.5,20.0,29.77,SSW,202,2.0,2.9,55,0.00,,---,0.00,VWS V13.01,2013-01-08 04:58:00,
2013-01-07 22:00:00,34.5,20.0,29.77,SSW,202,2.0,2.0,55,0.00,,---,0.00,VWS V13.01,2013-01-08 05:00:00,
2013-01-07 22:02:00,34.5,20.0,29.77,SSW,202,2.2,5.1,55,0.00,,---,0.00,VWS V13.01,2013-01-08 05:02:00,
2013-01-07 22:03:00,34.5,20.0,29.77,SSW,202,2.2,2.2,55,0.00,,---,0.00,VWS V13.01,2013-01-08 05:03:00,
2013-01-07 22:07:00,34.3,19.8,29.77,SSW,202,4.9,4.9,55,0.00,,---,0.00,VWS V13.01,2013-01-08 05:07:00,
2013-01-07 22:12:00,34.3,19.8,29.77,SSW,202,3.8,3.8,55,0.00,,---,0.00,VWS V13.01,2013-01-08 05:12:00,
2013-01-07 22:17:00,34.1,19.6,29.77,SSW,202,3.8,3.8,55,0.00,,---,0.00,VWS V13.01,2013-01-08 05:17:00,
2013-01-07 22:22:00,33.9,19.5,29.77,SSW,202,0.0,0.0,55,0.00,,---,0.00,VWS V13.01,2013-01-08 05:22:00,
2013-01-07 22:27:00,33.8,19.4,29.77,SW,225,3.3,3.3,55,0.00,,---,0.00,VWS V13.01,2013-01-08 05:27:00,
2013-01-07 22:32:00,33.6,19.2,29.76,SSW,202,6.2,6.2,55,0.00,,---,0.00,VWS V13.01,2013-01-08 05:32:00,
2013-01-07 22:37:00,33.4,19.0,29.76,SSW,202,9.1,9.1,55,0.00,,---,0.00,VWS V13.01,2013-01-08 05:37:00,
2013-01-07 22:42:00,33.4,19.4,29.77,SSW,202,6.4,6.4,56,0.00,,---,0.00,VWS V13.01,2013-01-08 05:42:00,
2013-01-07 22:47:00,33.4,19.4,29.77,SW,225,6.4,6.4,56,0.00,,---,0.00,VWS V13.01,2013-01-08 05:47:00,
2013-01-07 22:52:00,33.6,19.6,29.77,SW,225,7.8,7.8,56,0.00,,---,0.00,VWS V13.01,2013-01-08 05:52:00,
2013-01-07 22:57:00,33.8,19.8,29.77,SSW,202,7.3,7.3,56,0.00,,---,0.00,VWS V13.01,2013-01-08 05:57:00,
2013-01-07 23:02:00,34.1,20.1,29.77,SSW,202,2.9,8.2,56,0.00,,---,0.00,VWS V13.01,2013-01-08 06:02:00,
2013-01-07 23:07:00,34.3,19.8,29.78,SW,225,3.1,3.1,55,0.00,,---,0.00,VWS V13.01,2013-01-08 06:07:00,
2013-01-07 23:12:00,34.3,19.8,29.77,SSW,202,0.0,0.0,55,0.00,,---,0.00,VWS V13.01,2013-01-08 06:12:00,
2013-01-07 23:17:00,34.3,19.8,29.78,SW,225,0.0,0.0,55,0.00,,---,0.00,VWS V13.01,2013-01-08 06:17:00,
2013-01-07 23:22:00,34.5,20.0,29.78,SW,225,0.0,0.0,55,0.00,,---,0.00,VWS V13.01,2013-01-08 06:22:00,
2013-01-07 23:27:00,34.5,20.0,29.77,SSW,202,0.0,0.0,55,0.00,,---,0.00,VWS V13.01,2013-01-08 06:27:00,
2013-01-07 23:32:00,34.5,20.0,29.77,WSW,248,2.9,4.6,55,0.00,,---,0.00,VWS V13.01,2013-01-08 06:32:00,
2013-01-07 23:37:00,34.7,20.2,29.78,SW,225,1.7,1.7,55,0.00,,---,0.00,VWS V13.01,2013-01-08 06:37:00,
2013-01-07 23:42:00,34.8,20.7,29.77,WSW,248,7.6,7.6,56,0.00,,---,0.00,VWS V13.01,2013-01-08 06:42:00,
2013-01-07 23:47:00,35.4,21.3,29.78,SW,225,6.0,6.0,56,0.00,,---,0.00,VWS V13.01,2013-01-08 06:47:00,
2013-01-07 23:52:00,35.9,21.3,29.77,WSW,248,6.4,6.4,55,0.00,,---,0.00,VWS V13.01,2013-01-08 06:52:00,
2013-01-07 23:57:00,36.3,21.7,29.77,SW,225,8.5,8.5,55,0.00,,---,0.00,VWS V13.01,2013-01-08 06:57:00,